Regional Weather Roundup
Issued by NWS

Home | Current Version | Previous Version | Text Only | Print | Product List | Glossary On
Versions: 1 2 3 4 5 6 7 8 9 10 11 12 13 14 15 16 17 18 19 20 21 22 23 24 25 26 27 28 29 30 31 32 33 34 35 36 37 38 39 40 41 42 43 44 45 46 47 48 49 50
000
ASUS45 KPSR 260210
RWRAZ

ARIZONA REGIONAL HOURLY WEATHER ROUNDUP
NATIONAL WEATHER SERVICE PHOENIX AZ
700 PM MST SAT APR 25 2015

NOTE: FAIR INDICATES FEW OR NO CLOUDS BELOW 12,000 FEET WITH NO
SIGNIFICANT WEATHER AND/OR OBSTRUCTIONS TO VISIBILITY.

AZZ001>003-036-260300-
NORTHWEST ARIZONA

CITY           SKY/WX    TMP DP  RH WIND       PRES   REMARKS
BULLHEAD CITY  MOCLDY    66  50  55 S7        29.67S
KINGMAN        CLOUDY    52  47  83 S8        29.73F
$$

AZZ004>008-015-016-018-260300-
NORTH CENTRAL ARIZONA

CITY           SKY/WX    TMP DP  RH WIND       PRES   REMARKS
GRAND CANYON   RAIN      40  38  93 SW12G22   29.80S FOG     WCI  33
WILLIAMS       LGT RAIN  39  36  87 SW10G17   29.88S WCI  32
PRESCOTT       CLOUDY    51  38  60 S10       29.78F
FLAGSTAFF      LGT RAIN  36  36 100 W6        29.82S FOG     WCI  31
PAYSON         CLOUDY    48  39  71 SW12G21   29.85S
PAGE           CLOUDY    53  43  68 N9        29.74R
$$

AZZ009>014-017-260300-
NORTHEAST ARIZONA

CITY           SKY/WX    TMP DP  RH WIND       PRES   REMARKS
WINSLOW        LGT RAIN  50  41  71 SW23G43   29.80R
SAINT JOHNS    MOCLDY    57  27  31 SW12G25   29.80S
WINDOW ROCK    MOCLDY    50  26  39 SW8       29.82S
SHOW LOW       LGT RAIN  45  36  70 SW25G38   29.84S
$$

AZZ023-260300-
GREATER PHOENIX AREA

CITY           SKY/WX    TMP DP  RH WIND       PRES   REMARKS
PHOENIX        CLOUDY    74  38  27 W13       29.71S
BUCKEYE        CLOUDY    68  37  32 W17G29    29.73S
GLENDALE       MOCLDY    72  37  28 S12G21    29.73F
LUKE AFB       CLOUDY    71  40  32 SW15      29.71S
DEER VALLEY    CLOUDY    69  36  29 SW15G23   29.72S
SCOTTSDALE     CLOUDY    71  36  27 W10G18    29.74F
MESA-FALCON    LGT RAIN  70  45  40 W17G23    29.73R
MESA-GATEWAY   CLOUDY    73  45  35 W16G23    29.75R
CHANDLER       CLOUDY    73  41  31 SW15G26   29.73R
$$

AZZ027-028-260300-
SOUTHWEST MARICOPA COUNTY AND PINAL COUNTY

CITY           SKY/WX    TMP DP  RH WIND       PRES   REMARKS
CASA GRANDE    CLOUDY    72  39  30 W16       29.73S
GILA BEND      CLOUDY    72  40  31 W20G25    29.72F
$$

AZZ503-504-507>509-260300-
SOUTHEAST ARIZONA

CITY           SKY/WX    TMP DP  RH WIND       PRES   REMARKS
TUCSON         CLOUDY    75  32  20 W16G28    29.80R
DAVIS-MONTHAN  CLOUDY    74  31  20 W16G23    29.77S
RYAN FIELD       N/A     73  43  33 W16G30    29.79R
NOGALES        PTCLDY    67  36  31 SW15      29.85S
SIERRA VISTA   CLEAR     65  22  19 SW15      29.86S
DOUGLAS        CLEAR     68  23  18 SW20G28   29.85S
SAFFORD        CLOUDY    73  32  22 NW13      29.73F
$$

AZZ020-021-025-026-031-260300-
SOUTHWEST ARIZONA

CITY           SKY/WX    TMP DP  RH WIND       PRES   REMARKS
YUMA           MOCLDY    70  46  42 W15       29.78R
$$

CAZ031-033-041-043-047-048-061-260300-
SOUTHERN CALIFORNIA

CITY           SKY/WX    TMP DP  RH WIND       PRES   REMARKS
DOWNTOWN L.A.  MOCLDY    62  51  67 VRB3      29.86R
L.A. AIRPORT   MOCLDY    59  51  75 W28G35    29.87R
SAN DIEGO      LGT RAIN  64  55  72 W21G28    29.94F
BURBANK        MOCLDY    61  56  83 E5        29.86R
ONTARIO        CLOUDY    57  55  93 VRB3      29.85R
RIVERSIDE      CLOUDY    58  54  86 W15G25    29.84S
PALM SPRINGS   MOCLDY    68  47  46 NE6       29.76R
EL CENTRO NAS  CLEAR     68  47  46 SW26G39   29.80F
IMPERIAL       PTCLDY    68  48  48 W24G33    29.77S
BLYTHE         CLOUDY    72  45  37 SW18G26   29.71R
NEEDLES        LGT RAIN  69  35  28 W35G45    29.66F
$$

NVZ020-UTZ003-260300-
SOUTHERN NEVADA-UTAH

CITY           SKY/WX    TMP DP  RH WIND       PRES   REMARKS
LAS VEGAS      LGT RAIN  54  49  83 W16G26    29.70F
SALT LAKE CITY CLOUDY    47  43  86 N9        29.70F
$$

NMZ009-TXZ055-260300-
NEW MEXICO-WEST TEXAS

CITY           SKY/WX    TMP DP  RH WIND       PRES   REMARKS
ALBUQUERQUE    MOCLDY    65  26  23 SW6       29.76S
EL PASO        PTCLDY    75  17  11 W16G26    29.78F
$$


........................KEY........................
SKY/WX - SKY CONDITION/WEATHER
TMP    - TEMPERATURE IN FAHRENHEIT
DP     - DEW POINT IN FAHRENHEIT
RH     - RELATIVE HUMIDITY IN PERCENT
WIND   - DIRECTION AND SPEED IN MILES PER HOUR (MPH)
VRB    - VARIABLE WIND DIRECTION
PRES   - MEAN SEA LEVEL PRESSURE IN INCHES OF MERCURY
         F - FALLING PRESSURE   R - RISING PRESSURE
         S - STEADY PRESSURE
VSB    - VISIBILITY IN MILES
HX     - HEAT INDEX IN FAHRENHEIT
WCI    - WIND CHILL INDEX IN FAHRENHEIT
TC     - TEMPERATURE IN CELSIUS WHICH IS ALSO KNOWN AS
         TEMPERATURE IN CENTIGRADE
AFB    - AIR FORCE BASE
         LUKE AFB IS LUKE AIR FORCE BASE
         DAVIS-MONTHAN IS DAVIS-MONTHAN AIR FORCE BASE
NAS    - NAVAL AIR STATION
         EL CENTRO NAS IS EL CENTRO NAVAL AIR STATION
N/A    - NOT AVAILABLE




USA.gov is the U.S. government's official web portal to all federal, state and local government web resources and services.